カタログに戻る

CZ-2C DEB

運用中SSO
NORAD 39627·DEBRIS·🇨🇳 China

打ち上げ Mar 31, 2014 から Jiuquan Satellite Launch Center

Loading…

次のパス (今後24時間)

TLE

最新Source: Space-Track

元期: Sep 14, 2026, 13:37 UTC

1 39627U 14014D   26257.56739270  .00001255  00000-0  39145-3 0  9996
2 39627  98.1366  17.4510 0150876  36.5657 324.5717 14.36135499647831

AllMySatでCZ-2C DEBをリアルタイム追跡

Download on the App Store